Tracking 22454 objects as of 5-Mar-2021
HD Live streaming from Space Station
objects crossing your sky now

SL-8 R/B

Track SL-8 R/B now!
10-day predictions


NORAD ID: 23190
Int'l Code: 1994-045B
Perigee: 978.5 km
Apogee: 1,005.6 km
Inclination: 74.0 °
Period: 104.8 minutes
Semi major axis: 7363 km
RCS: 5.279 m2 (large)
Launch date: August 2, 1994
Source: Commonwealth of Independent States (former USSR) (CIS)
Launch site: PLESETSK MISSILE AND SPACE COMPLEX (PKMTR)

Note: This is a ROCKET BODY
aabbcc
Your satellite tracking list
Your tracking list is empty




NASA's NSSDC Master Catalog

Two Line Element Set (TLE):
1 23190U 94045B   21063.31012714 -.00000043  00000-0 -21758-4 0  9994
2 23190  74.0298  15.2664 0018402  42.8203 317.4345 13.74097674333245
Source of the keplerian elements: AFSPC